Location: Barba
(41.0333°N, 14.7667°E)
Time: 20:35:22
(UTC+00:00)

Daily predictions for brighter satellites

Satellite Brightness Start Highest point End
(mag) Time Altitude Azimuth Time Altitude Azimuth Time Altitude Azimuth
MOS 1-B Rocket 4.1 18:38:09 10° NNE 18:44:59 67° E 18:50:52 10° S
S3M 4.3 18:39:38 10° SSW 18:46:00 77° W 18:52:20 10° N
BREEZE M DEB (TANK) 4.3 18:39:59 10° WNW 18:46:06 28° N 18:48:43 10° NE
Cosmos 1777 Rocket 4.0 18:43:13 10° SSW 18:48:23 77° ESE 18:53:36 10° NNE
ATLAS 5 CENTAUR R/B 3.5 18:47:32 10° NW 18:53:06 43° WSW 18:59:28 10° S
Ariane Rocket 3.2 18:48:22 10° SSE 18:53:16 54° ENE 18:58:13 10° N
Cosmos 1437 2.3 18:52:02 10° S 18:54:50 72° E 18:57:40 10° NNE
Cosmos 2278 Rocket 2.2 18:50:39 10° SSW 18:56:17 77° ESE 19:01:57 10° NNE
ATLAS 2AS CENTAUR R/B 4.0 18:50:35 10° NNW 18:57:03 31° NE 19:03:05 10° E
USA 305 3.0 18:53:28 10° NW 18:57:43 70° NE 19:01:47 11° ESE
Cosmos 1515 Rocket 4.2 18:54:04 10° SSE 18:58:04 36° E 19:02:05 10° NNE
Cosmos 1242 Rocket 4.2 18:55:18 10° SSW 18:58:37 37° WNW 19:01:55 10° N
Cosmos 1271 Rocket 4.1 18:55:59 10° SE 18:59:10 23° E 19:02:21 10° NE
COSMOS 2406 3.3 18:53:48 10° NNW 18:59:27 65° ENE 19:05:05 10° SE
Cosmos 1633 Rocket 3.0 18:58:40 10° N 19:03:07 81° E 19:07:32 10° S
X-37B 3.1 19:02:05 10° WSW 19:03:48 14° SW 19:05:29 10° S
Meteor 1-26 Rocket 4.4 18:58:56 10° SSW 19:04:32 80° W 19:10:02 10° N
Cosmos 2315 Rocket 4.1 18:58:19 10° S 19:04:41 80° E 19:11:05 10° N
Cosmos 1328 Rocket 3.5 19:03:25 10° S 19:07:50 87° E 19:12:16 10° N
GPS 2-04 Rocket1 3.8 19:07:18 10° WSW 19:11:00 31° SSW 19:13:52 14° SE
Cosmos 1602 4.2 19:07:23 10° NNW 19:11:14 62° W 19:15:05 10° S
Resurs 01 Rocket 2.2 19:07:21 11° SE 19:11:17 42° ENE 19:15:28 10° N
Cosmos 1666 3.6 19:11:48 10° NNE 19:15:10 31° ENE 19:17:31 16° SE
USA 306 2.9 19:13:12 10° NW 19:17:28 83° SW 19:20:47 16° SE
Meteor 2-6 Rocket 4.2 19:14:36 10° S 19:19:56 61° E 19:25:26 10° NNE
Cosmos 1470 Rocket 3.6 19:17:02 10° N 19:21:31 73° E 19:25:46 11° SSE
Tianhe-1 0.9 19:18:47 10° WSW 19:21:55 75° SSE 19:24:46 12° E
Cosmos 1812 2.6 19:18:47 10° S 19:22:37 77° E 19:26:29 10° N
Cosmos 1833 Rocket 2.8 19:19:58 10° NNW 19:25:39 79° WSW 19:30:52 12° SSE
IGS 5A 3.6 19:28:08 17° SSE 19:31:10 59° ENE 19:35:16 10° N
CREW DRAGON DEMO-1 DEB 3.6 19:29:19 10° WNW 19:31:43 32° SW 19:32:46 22° S
SJ 16-02 1.7 19:29:08 10° SSW 19:33:32 67° WNW 19:37:58 10° NNE
CZ-2C R/B 2.5 19:30:57 10° SSW 19:33:56 20° SSE 19:34:15 20° SSE
Cosmos 1933 Rocket 3.5 19:30:49 10° N 19:35:09 65° E 19:38:12 19° SSE
Meteor 1-14 Rocket 4.4 19:29:33 10° NNW 19:35:19 74° W 19:40:56 10° S
USA 267 3.9 19:30:30 12° SSE 19:36:18 46° SW 19:42:34 10° WNW
Meteor 1-27 Rocket 4.2 19:35:23 15° SSE 19:39:49 43° E 19:45:22 10° NNE
CZ-2C R/B 3.7 19:40:20 10° NNE 19:44:51 62° ESE 19:48:50 14° S
Cosmos 1500 4.2 19:42:29 10° NNW 19:46:03 44° W 19:49:30 11° SSW
USA 307 3.4 19:42:29 10° WNW 19:46:38 50° SW 19:48:52 24° SSE
Landsat 7 3.8 19:45:03 20° SSE 19:48:23 81° ENE 19:53:10 10° N
SWARM A 4.3 19:47:03 10° N 19:50:21 73° W 19:52:20 22° S
ERS-1 Rocket 4.1 19:49:17 21° ESE 19:51:28 29° ENE 19:55:45 10° N
SPOT 5 4.1 19:51:32 22° ESE 19:53:53 31° ENE 19:58:32 10° N
MetOp-B 4.1 19:50:25 21° SSE 19:54:05 80° ENE 19:59:27 10° N
ERBS 4.3 19:52:14 10° NNW 19:54:49 21° NNE 19:56:16 16° ENE
OBJECT-B 3.8 19:54:20 10° WSW 19:55:33 12° W 19:56:48 10° WNW
ARIANE 5 R/B 3.2 19:55:47 29° ESE 19:57:25 41° ENE 20:01:29 10° N
Meteor 1-5 Rocket 4.4 19:52:12 10° NNW 19:57:28 65° W 20:01:47 15° S
SPOT 1/Viking Rocket 3.5 19:56:32 25° SSE 19:59:32 71° ENE 20:04:42 10° N
USA 245 3.0 20:00:07 35° NE 20:00:07 35° NE 20:01:56 10° N
Spot 2 Rocket 3.8 19:57:54 28° SE 20:00:19 52° ENE 20:05:13 10° N
USA 308 3.8 19:56:31 10° WNW 20:00:30 38° SW 20:02:16 26° S
Cosmos 1937 Rocket 3.8 19:58:04 25° SSE 20:00:35 44° ESE 20:05:29 10° NNE
Cosmos 2297 3.6 19:56:36 10° S 20:02:14 66° ESE 20:07:52 10° NNE
ISS -1.6 20:05:21 10° W 20:08:20 28° NNW 20:11:18 10° NE
OAO 3 Rocket 3.6 20:09:07 10° WSW 20:13:27 39° S 20:14:01 38° SSE
Meteor 1-11 Rocket 3.8 20:09:27 10° N 20:15:26 89° W 20:18:41 28° S
Cosmos 1867 4.3 20:15:58 31° ESE 20:16:00 31° ESE 20:20:46 10° NE
SPOT 3 Rocket 4.2 20:12:40 18° S 20:16:20 49° W 20:21:20 10° NNW
Cosmos 1340 Rocket 3.1 20:14:09 10° N 20:18:06 48° ENE 20:18:40 44° ESE
Cosmos 2082 Rocket 2.6 20:13:11 10° NNW 20:18:41 57° WSW 20:21:45 26° S
Cosmos 1943 Rocket 2.1 20:14:37 19° S 20:18:43 67° ESE 20:24:16 10° NNE
Cosmos 858 Rocket 4.4 20:16:16 28° S 20:18:55 63° ESE 20:24:06 10° NNE
Nadezhda 1 Rocket 3.9 20:14:54 19° S 20:19:37 86° E 20:25:51 10° N
Cosmos 1680 Rocket 3.5 20:14:35 10° NNW 20:19:56 83° ENE 20:22:04 38° SSE
Cosmos 2154 Rocket 3.9 20:13:54 10° N 20:20:14 79° E 20:23:27 31° SSE
Cosmos 1461 3.0 20:16:27 10° SSW 20:21:09 84° ESE 20:25:49 10° NNE
H-2A R/B 4.3 20:19:22 10° NNE 20:22:44 32° E 20:22:44 32° E
CZ-4C R/B 4.3 20:17:08 10° NW 20:23:45 32° WSW 20:30:15 12° SSW
Cosmos 2074 Rocket 4.3 20:17:51 10° NNW 20:24:04 64° W 20:28:24 21° SSW
Delta 2 Rocket 4.4 20:20:08 10° W 20:24:49 34° SSW 20:25:07 34° S
Cosmos 2184 Rocket 4.3 20:20:20 10° NNW 20:26:26 63° W 20:30:30 22° SSW
Cosmos 44 3.4 20:26:47 10° NW 20:32:11 81° WSW 20:33:48 46° SSE
ATLAS CENTAUR R/B 3.7 20:35:24 11° ENE 20:35:24 11° ENE 20:35:32 10° ENE
Iridium 4 Rocket 4.5 20:28:48 14° SSW 20:33:42 53° W 20:39:28 10° N
NOSS 3-4 (A) 4.5 20:28:17 10° NW 20:35:11 50° WSW 20:39:24 26° S
Cosmos 1544 2.9 20:31:38 10° N 20:35:16 84° E 20:35:19 84° E
NOSS 3-4 (C) 4.5 20:28:23 10° NW 20:35:18 50° WSW 20:39:30 26° S
Cosmos 1862 Rocket 4.2 20:37:29 38° E 20:37:29 38° E 20:41:10 10° NNE
Cosmos 372 Rocket 4.0 20:38:31 50° SE 20:39:14 55° ESE 20:44:13 10° NNE
Cosmos 1607 4.2 20:38:47 40° SSE 20:40:28 49° ESE 20:46:40 10° NE
Cosmos 1536 3.3 20:39:45 10° NNW 20:43:41 54° W 20:44:24 46° SW
Cosmos 2228 Rocket 4.5 20:40:35 15° SW 20:43:50 36° WNW 20:48:00 10° N
Cosmos 2369 Rocket 2.2 20:42:46 48° SSE 20:43:52 56° ESE 20:49:23 10° NNE
Cosmos 1869 Rocket 4.2 20:41:06 10° NNW 20:45:17 48° W 20:46:32 37° SW
Resurs 01 Rocket 4.0 20:44:56 10° SW 20:47:56 18° W 20:50:57 10° NW
ATLAS 2AS CENTAUR R/B 2.8 20:41:24 10° NW 20:48:34 67° WSW 20:51:07 40° S
Cosmos 1898 Rocket 4.4 20:44:21 10° SW 20:49:28 48° WNW 20:54:38 10° N
Terra 1.7 20:55:27 67° SE 20:56:03 82° ENE 21:00:50 10° N
Tianhe-1 3.1 20:55:22 10° W 20:56:45 24° W 20:56:45 24° W
Cosmos 2366 rocket 4.3 20:52:33 10° N 20:58:35 51° ENE 20:59:53 44° ESE
Cosmos 1707 Rocket 3.9 20:58:17 47° SW 20:59:13 59° W 21:03:36 10° N
CARTOSAT-1 4.4 20:58:59 37° SW 20:59:48 41° W 21:03:53 10° NNW
Cosmos 2181 Rocket 3.9 20:58:38 51° SSE 21:00:02 65° E 21:06:06 10° NNE
Cosmos 489 Rocket 4.5 20:53:52 10° NNW 21:00:08 70° ENE 21:01:45 50° SE
Meteor 1-18 Rocket 4.2 21:00:09 56° SE 21:00:57 63° E 21:06:27 10° NNE
Cosmos 1975 3.9 20:58:35 10° N 21:01:34 34° NE 21:01:34 34° NE
Meteor 2-9 Rocket 4.2 20:58:28 10° N 21:04:08 63° ENE 21:04:57 56° ESE
SL-24 R/B - RUBIN 2 4.5 21:00:47 10° NW 21:05:39 41° WSW 21:06:09 40° SW
Cosmos 1818 3.6 21:01:24 10° NW 21:06:51 68° WSW 21:07:40 59° SSW
Cosmos 2084 Rocket 4.1 21:04:38 10° NW 21:08:37 47° WSW 21:08:37 47° WSW
RESURS DK-1 3.4 21:12:19 10° N 21:15:50 37° NE 21:15:50 37° NE
Cosmos 2150 Rocket 4.3 21:22:25 54° E 21:22:25 54° E 21:27:08 10° NNE
Cosmos 2263 4.1 21:23:08 65° SSW 21:24:03 86° ESE 21:29:53 10° NNE
Cosmos 2341 Rocket 4.2 21:18:22 10° NNW 21:24:41 65° W 21:26:26 47° SSW
Cosmos 1743 4.2 21:21:50 10° NNW 21:25:03 31° W 21:25:03 31° W
Cosmos 1125 Rocket 4.1 21:27:37 44° ENE 21:27:37 44° ENE 21:31:45 10° NNE
Cosmos 1733 Rocket 3.6 21:24:50 10° NNW 21:28:47 50° W 21:28:47 50° W
Cosmos 2218 Rocket 3.9 21:23:24 10° N 21:29:46 89° W 21:30:56 63° S
ERS-1 Rocket 4.1 21:29:16 31° WSW 21:30:09 33° W 21:34:40 10° NNW
Milstar 3 4.1 21:19:02 10° W 21:30:59 37° SSW 21:31:30 37° SSW
SPOT 5 4.2 21:30:45 31° WSW 21:31:49 34° W 21:36:38 10° NNW
Meteor 2-4 Rocket 3.5 21:39:42 80° S 21:40:02 88° E 21:45:39 10° N
SL-8 Rocket 4.2 21:34:16 10° NNW 21:40:31 62° W 21:41:47 52° SW
Cosmos 1238 Rocket 4.0 21:35:35 10° NNW 21:40:51 47° W 21:41:08 46° W
Nadezhda 3 Rocket 4.3 21:40:50 48° E 21:41:01 49° E 21:46:57 10° NNE
ISS -0.5 21:44:07 10° NW 21:45:59 14° N 21:47:50 10° NNE
Cosmos 1908 Rocket 4.1 21:45:35 10° N 21:49:13 58° NNW 21:49:13 58° NNW
Gbstr 26 Del rocket 4.2 21:46:28 10° WNW 21:53:23 52° SW 21:53:23 52° SW
Cosmos 1833 4.1 21:48:01 10° NNW 21:53:49 80° ENE 21:53:59 80° E
Lacrosse 5 2.5 22:02:09 47° NE 22:02:09 47° NE 22:05:46 10° NE
Cosmos 1943 Rocket 4.5 21:58:57 10° W 22:02:58 20° NW 22:06:59 10° N
Cosmos 2242 Rocket 4.4 22:05:59 50° NNW 22:05:59 50° NNW 22:09:35 10° N
Cosmos 1048 Rocket 4.2 22:01:25 10° NNW 22:06:10 66° WNW 22:06:10 66° WNW
Okean 1-7 4.0 22:08:56 44° NNW 22:08:56 44° NNW 22:12:06 10° N
Cosmos 1656 Rocket 4.4 22:08:32 39° W 22:09:47 46° WNW 22:15:06 10° NNE
Cosmos 2239 Rocket 4.5 22:04:35 10° N 22:10:54 68° E 22:11:16 66° ESE
ATLAS CENTAUR R/B 3.2 22:11:29 24° NW 22:11:29 24° NW 22:14:22 10° N
SL-08 R/B 4.5 22:09:46 10° NNW 22:16:01 70° W 22:16:29 67° WSW
Meteor 1-13 Rocket 4.1 22:16:24 79° NNE 22:16:24 79° NNE 22:21:36 10° N
Cosmos 2369 Rocket 4.2 22:24:28 12° W 22:28:15 23° NW 22:32:41 10° N
Cosmos 1934 Rocket 4.0 22:25:59 10° N 22:32:04 66° E 22:32:08 66° E
Cosmos 44 Rocket 4.0 22:32:30 10° NW 22:36:33 54° NW 22:36:33 54° NW
COBE Rocket 4.2 22:38:52 67° N 22:38:52 67° N 22:43:21 10° N
Cosmos 2344 4.4 22:30:55 10° NW 22:40:39 90° W 22:46:11 41° SSE
Cosmos 1821 Rocket 4.2 22:36:14 10° NNW 22:42:28 57° W 22:42:44 57° WSW
Thor Agena Rocket 4.0 22:39:30 10° NNE 22:43:56 56° ENE 22:43:56 56° ENE
NOSS 2-1 (C) 4.4 22:55:09 10° NW 22:59:58 71° W 22:59:58 71° W
ALOS 2 4.3 23:08:32 27° NW 23:08:32 27° NW 23:10:59 10° NNW
Cosmos 1535 Rocket 4.5 23:04:14 10° NNW 23:10:29 70° W 23:10:33 70° W
Cosmos 1727 Rocket 4.2 23:10:28 56° E 23:10:42 57° E 23:16:55 10° NNE
Cosmos 1932 4.4 23:14:38 77° ESE 23:14:38 77° ESE 23:20:52 10° NE
Cosmos 1656 4.0 23:20:17 54° ENE 23:20:17 54° ENE 23:24:56 10° NNE
Cosmos 2227 Rocket 3.3 23:15:50 10° N 23:21:04 37° ENE 23:22:33 32° E
Cosmos 2297 Rocket 2.8 23:17:38 10° NNW 23:23:10 50° ENE 23:23:53 47° E
ISS -0.8 23:21:20 10° NNW 23:22:53 17° N 23:22:53 17° N
COSMOS 2455 2.8 23:18:53 10° NNW 23:24:55 76° ENE 23:25:11 75° E
EO 1 Delta rocket 4.3 23:30:18 77° WNW 23:30:18 77° WNW 23:36:29 10° N
Meteor 2-10 4.2 23:31:06 10° N 23:35:41 68° NNW 23:35:41 68° NNW
SL-16 R/B 4.2 23:34:51 15° ESE 23:38:42 27° ENE 23:43:49 10° N
Lacrosse 5 3.9 23:41:17 15° WNW 23:44:10 24° NNW 23:48:19 10° NNE
Cosmos 1953 4.2 23:42:28 10° NNE 23:45:19 25° ENE 23:45:19 25° ENE
Cosmos 614 Rocket 4.4 23:42:28 10° N 23:47:29 53° ENE 23:47:41 53° ENE
Cosmos 1470 4.4 23:44:37 10° N 23:46:48 31° NNW 23:46:48 31° NNW
Cosmos 1605 Rocket 4.4 23:42:44 10° NNW 23:48:46 49° W 23:48:50 49° W
SeaSat 1 2.6 23:44:20 10° NNE 23:48:47 71° N 23:48:47 71° N
